Weather History for Russellville, AR

Change the Weather History Date:

Wednesday, December 26, 2012

  Actual Average (KHOT) Record (KHOT)
Temperature  
Mean Temperature 30 °F -  
Max Temperature 36 °F 47 °F 69 °F (1971)
Min Temperature 21 °F 27 °F 1 °F (1983)
Degree Days  
Heating Degree Days 35    
Moisture  
Dew Point 23 °F    
Average Humidity 72    
Maximum Humidity 92    
Minimum Humidity 61    
Precipitation  
Precipitation 0.05 in - - ()
Sea Level Pressure  
Sea Level Pressure 30.07 in    
Wind  
Wind Speed 9 mph (WNW)    
Max Wind Speed 16 mph    
Max Gust Speed 23 mph    
Visibility 10 miles    
Events      
Averages and records for this station are not official NWS values.
T = Trace of Precipitation, MM = Missing Value Source: NWS Daily Summary

Daily Weather History Graph

Daily Weather History Graph

Search for Another Location

Airport:

Trip Planner

Search our weather history database for the weather conditions in past years. The results will help you decide how hot, cold, wet, or windy it might be!

Date:

Astronomy

Dec. 26, 2012 Rise Set
Actual Time 7:19 AM CST 5:07 PM CST
Civil Twilight 6:51 AM CST 5:35 PM CST
Nautical Twilight 6:19 AM CST 6:07 PM CST
Astronomical Twilight 5:48 AM CST 6:38 PM CST
Moon 4:00 PM CST (12/26) 5:44 AM CST (12/26)
Length of Visible Light 10h 44m
Length of Day
9h 47m
Waxing Gibbous, 97% of the Moon is Illuminated
Dec 26
Waxing Gibbous
Dec 28
Full
Jan 4
Last Quarter
Jan 11
New
Jan 18
First Quarter

Hourly Weather History & Observations

Time (CST) Temp. Windchill Dew Point Humidity Pressure Visibility Wind Dir Wind Speed Gust Speed Precip Events Conditions
12:14 AM 33.8 °F 27.0 °F 26.6 °F 75% 29.89 in 10.0 mi NW 8.1 mph - N/A   Overcast
12:53 AM 33.1 °F 24.4 °F 25.0 °F 72% 29.90 in 10.0 mi NW 11.5 mph - N/A   Overcast
1:19 AM 33.8 °F 25.3 °F 24.8 °F 70% 29.91 in 10.0 mi NW 11.5 mph 18.4 mph N/A   Overcast
1:53 AM 34.0 °F 24.2 °F 25.0 °F 70% 29.92 in 10.0 mi NW 15.0 mph 19.6 mph N/A   Overcast
2:25 AM 33.8 °F 24.8 °F 24.8 °F 70% 29.93 in 10.0 mi WNW 12.7 mph 21.9 mph N/A   Overcast
2:53 AM 33.1 °F 24.4 °F 24.1 °F 70% 29.95 in 10.0 mi WNW 11.5 mph - N/A   Overcast
3:23 AM 32.0 °F 21.6 °F 24.8 °F 75% 29.96 in 10.0 mi WNW 15.0 mph 23.0 mph N/A   Overcast
3:53 AM 32.0 °F 22.5 °F 23.0 °F 69% 29.97 in 10.0 mi WNW 12.7 mph 20.7 mph N/A   Overcast
4:07 AM 30.2 °F 18.9 °F 23.0 °F 75% 29.97 in 10.0 mi WNW 16.1 mph 21.9 mph N/A   Overcast
4:53 AM 30.0 °F 21.7 °F 21.9 °F 72% 29.98 in 10.0 mi WNW 9.2 mph - N/A   Partly Cloudy
5:53 AM 30.0 °F 21.7 °F 21.0 °F 69% 30.01 in 10.0 mi WNW 9.2 mph - N/A   Clear
6:53 AM 28.0 °F 20.0 °F 21.0 °F 75% 30.04 in 10.0 mi NW 8.1 mph - N/A   Clear
7:53 AM 28.0 °F 20.0 °F 19.9 °F 72% 30.08 in 10.0 mi WNW 8.1 mph - N/A   Clear
8:53 AM 28.9 °F 19.2 °F 19.9 °F 69% 30.12 in 10.0 mi WNW 11.5 mph - N/A   Scattered Clouds
9:04 AM 30.2 °F 19.8 °F 19.4 °F 64% 30.12 in 10.0 mi WNW 13.8 mph - N/A   Mostly Cloudy
9:53 AM 30.9 °F 23.5 °F 21.9 °F 69% 30.14 in 10.0 mi WNW 8.1 mph - N/A   Mostly Cloudy
10:04 AM 30.2 °F 23.4 °F 21.2 °F 69% 30.14 in 10.0 mi West 6.9 mph - N/A   Scattered Clouds
10:14 AM 30.2 °F 22.6 °F 21.2 °F 69% 30.15 in 10.0 mi WNW 8.1 mph - N/A   Mostly Cloudy
10:39 AM 32.0 °F 24.2 °F 21.2 °F 64% 30.15 in 10.0 mi WNW 9.2 mph - N/A   Scattered Clouds
10:53 AM 32.0 °F 26.4 °F 21.9 °F 66% 30.14 in 10.0 mi WNW 5.8 mph - N/A   Partly Cloudy
11:53 AM 35.1 °F 27.9 °F 23.0 °F 61% 30.13 in 10.0 mi West 9.2 mph 18.4 mph 0.01 in   Clear
12:53 PM 35.1 °F 27.4 °F 24.1 °F 64% 30.12 in 10.0 mi West 10.4 mph - 0.02 in   Clear
1:53 PM 36.0 °F 27.5 °F 24.1 °F 62% 30.11 in 10.0 mi WNW 12.7 mph 19.6 mph 0.01 in   Clear
2:53 PM 36.0 °F 30.3 °F 26.1 °F 67% 30.11 in 10.0 mi West 6.9 mph - N/A   Clear
3:53 PM 36.0 °F 28.5 °F 26.1 °F 67% 30.12 in 10.0 mi West 10.4 mph - 0.01 in   Clear
4:53 PM 34.0 °F 31.0 °F 25.0 °F 70% 30.14 in 10.0 mi SSW 3.5 mph - N/A   Clear
5:53 PM 28.9 °F - 24.1 °F 82% 30.16 in 10.0 mi Calm Calm - N/A   Clear
7:53 PM 30.0 °F - 23.0 °F 75% 30.19 in 10.0 mi Calm Calm - N/A   Clear
8:53 PM 28.9 °F 22.8 °F 21.0 °F 72% 30.18 in 10.0 mi NW 5.8 mph - N/A   Clear
9:53 PM 26.1 °F - 21.9 °F 84% 30.17 in 10.0 mi Calm Calm - N/A   Clear
10:53 PM 24.1 °F - 21.0 °F 88% 30.18 in 7.0 mi Calm Calm - N/A   Clear
11:53 PM 21.9 °F - 19.9 °F 92% 30.17 in 5.0 mi Calm Calm - N/A   Clear